GW0381 Weather Reports


Display with metric or nautical units.
time (UTC)temp
F
wind
direction
speed
MPH
gust
MPH
rain 1hr
in
rain 24hr
in
rain mn
in
humidity
%
barometer
mb
20260505093957 58 22 2.0 4.0 0.00 0.02 0.02 85 1009.3
20260505093615 58 13 3.0 6.0 0.00 0.02 0.02 85 1009.2
20260505093317 58 14 3.0 6.0 0.00 0.02 0.02 85 1009.2
20260505093017 58 30 1.0 5.0 0.00 0.02 0.02 85 1009.1
20260505092723 58 28 2.0 6.0 0.00 0.02 0.02 85 1009.2
20260505092415 58 27 3.0 7.0 0.00 0.02 0.02 85 1009.2
20260505092120 58 39 3.0 8.0 0.00 0.02 0.02 85 1009.2
20260505091857 58 47 1.0 4.0 0.00 0.02 0.02 85 1009.2
20260505091518 58 29 1.0 5.0 0.00 0.02 0.02 85 1009.3
20260505091217 58 19 1.0 5.0 0.00 0.02 0.02 85 1009.3
20260505090917 58 29 2.0 5.0 0.00 0.02 0.02 84 1009.4
20260505090620 58 37 2.0 5.0 0.01 0.02 0.02 84 1009.4
20260505090317 59 43 2.0 5.0 0.01 0.02 0.02 85 1009.5
20260505090017 59 29 2.0 5.0 0.01 0.02 0.02 85 1009.5
20260505085717 59 27 2.0 5.0 0.01 0.02 0.02 85 1009.5
20260505085415 59 42 3.0 7.0 0.01 0.02 0.02 86 1009.5
20260505085117 59 8 2.0 5.0 0.01 0.02 0.02 86 1009.5
20260505084817 59 18 0.0 4.0 0.01 0.02 0.02 86 1009.5
20260505084520 58 33 2.0 5.0 0.01 0.02 0.02 86 1009.5
20260505084217 58 45 3.0 5.0 0.01 0.02 0.02 86 1009.5
20260505083915 58 37 2.0 4.0 0.01 0.02 0.02 86 1009.4
20260505083616 59 43 2.0 5.0 0.01 0.02 0.02 86 1009.4
20260505083316 59 35 2.0 5.0 0.01 0.02 0.02 86 1009.4
20260505083017 59 40 2.0 5.0 0.01 0.02 0.02 86 1009.4
20260505082717 59 45 1.0 3.0 0.01 0.02 0.02 86 1009.4
20260505082417 59 49 1.0 4.0 0.01 0.02 0.02 86 1009.4
20260505082117 59 46 2.0 4.0 0.01 0.02 0.02 86 1009.4
20260505081815 59 42 2.0 4.0 0.02 0.02 0.02 86 1009.4
20260505081516 59 55 1.0 3.0 0.02 0.02 0.02 86 1009.4
20260505081215 59 55 1.0 3.0 0.02 0.02 0.02 86 1009.4
20260505080917 59 55 1.0 3.0 0.02 0.02 0.02 86 1009.4
20260505080617 59 98 1.0 3.0 0.01 0.01 0.01 86 1009.4
20260505080316 59 98 1.0 2.0 0.01 0.01 0.01 86 1009.4
20260505080019 59 98 0.0 1.0 0.01 0.01 0.01 86 1009.4
20260505075715 58 98 1.0 2.0 0.01 0.01 0.01 86 1009.3
20260505075417 58 98 0.0 2.0 0.01 0.01 0.01 86 1009.4
20260505075116 58 98 1.0 2.0 0.01 0.01 0.01 86 1009.4
20260505074817 58 98 0.0 2.0 0.01 0.01 0.01 86 1009.4
20260505074517 58 98 0.0 1.0 0.01 0.01 0.01 86 1009.3
20260505074218 58 0.0 0.0 0.01 0.01 0.01 86 1009.3
20260505073916 58 98 0.0 1.0 0.01 0.01 0.01 86 1009.3
20260505073658 58 98 0.0 1.0 0.01 0.01 0.01 86 1009.2
20260505073317 58 98 0.0 2.0 0.01 0.01 0.01 86 1009.2
20260505073015 58 98 0.0 2.0 0.01 0.01 0.01 86 1009.2
20260505072755 58 98 0.0 1.0 0.01 0.01 0.01 86 1009.2
20260505072417 58 98 0.0 1.0 0.01 0.01 0.01 86 1009.2
20260505072157 58 98 0.0 1.0 0.01 0.01 0.01 85 1009.2
20260505071857 58 98 0.0 1.0 0.00 0.00 0.00 85 1009.3
20260505071515 58 98 0.0 1.0 0.00 0.00 0.00 85 1009.3
20260505071420 58 98 0.0 1.0 0.00 0.00 0.00 84 1009.3
20260505070916 58 0.0 0.0 0.00 0.00 0.00 84 1009.3
20260505070620 58 0.0 0.0 0.00 0.00 0.00 84 1009.3
20260505070318 58 98 0.0 1.0 0.00 0.00 0.00 84 1009.2
20260505070017 58 98 0.0 2.0 0.00 0.00 0.00 84 1009.2
20260505065717 58 98 0.0 1.0 0.00 0.00 0.00 84 1009.2
20260505065415 58 98 0.0 1.0 0.00 0.00 0.00 84 1009.1
20260505065116 58 98 0.0 1.0 0.00 0.00 0.00 84 1009.1
20260505064815 58 0.0 0.0 0.00 0.00 0.00 84 1009.2
20260505064523 58 98 0.0 1.0 0.00 0.00 0.00 84 1009.2
20260505064217 58 0.0 0.0 0.00 0.00 0.00 84 1009.2
20260505063917 58 98 0.0 1.0 0.00 0.00 0.00 85 1009.2
20260505063617 58 98 0.0 1.0 0.00 0.00 0.00 85 1009.2
20260505063315 58 98 0.0 1.0 0.00 0.00 0.00 85 1009.2
20260505063016 58 98 0.0 1.0 0.00 0.00 0.00 84 1009.2
20260505062715 58 98 0.0 1.0 0.00 0.00 0.00 84 1009.3
20260505062420 58 98 0.0 2.0 0.00 0.00 0.00 85 1009.2
20260505062117 58 98 0.0 1.0 0.00 0.00 0.00 84 1009.2
20260505061856 58 98 0.0 1.0 0.00 0.00 0.00 85 1009.2
20260505061557 57 98 0.0 1.0 0.00 0.00 0.00 84 1009.3
20260505061218 57 98 1.0 3.0 0.00 0.00 0.00 85 1009.3
20260505060917 57 98 1.0 3.0 0.00 0.00 0.00 85 1009.3
20260505060735 57 98 1.0 4.0 0.00 0.00 0.00 85 1009.3
20260505060323 57 98 1.0 3.0 0.00 0.00 0.00 85 1009.3
20260505060020 57 98 0.0 2.0 0.00 0.00 0.00 84 1009.3
20260505055717 57 98 1.0 2.0 0.00 0.00 0.00 85 1009.2
20260505055416 57 97 1.0 3.0 0.00 0.00 0.00 85 1009.3
20260505055115 57 79 1.0 3.0 0.00 0.00 0.00 85 1009.3
20260505054819 57 75 1.0 2.0 0.00 0.00 0.00 85 1009.2
20260505054515 57 75 1.0 2.0 0.00 0.00 0.00 85 1009.2
20260505054216 57 75 0.0 1.0 0.00 0.00 0.00 85 1009.2
20260505053957 57 75 1.0 2.0 0.00 0.00 0.00 85 1009.1
20260505053617 57 75 0.0 2.0 0.00 0.00 0.00 85 1009.2
20260505053317 57 75 1.0 2.0 0.00 0.00 0.00 85 1009.2
20260505053015 57 75 1.0 2.0 0.00 0.00 0.00 85 1009.2
20260505052716 57 75 1.0 2.0 0.00 0.00 0.00 85 1009.1
20260505052417 57 75 0.0 2.0 0.00 0.00 0.00 84 1009.1
20260505052157 57 77 1.0 3.0 0.00 0.00 0.00 84 1009.1
20260505051815 57 88 2.0 4.0 0.00 0.00 0.00 84 1009.2
20260505051517 57 80 2.0 4.0 0.00 0.00 0.00 84 1009.2
20260505051217 57 92 2.0 4.0 0.00 0.00 0.00 84 1009.2
20260505050915 57 91 2.0 3.0 0.00 0.00 0.00 84 1009.3
20260505050616 57 95 1.0 3.0 0.00 0.00 0.00 84 1009.2
20260505050359 57 95 1.0 2.0 0.00 0.00 0.00 84 1009.3
20260505041517 56 78 3.0 6.0 0.00 0.00 0.00 84 1009.2
20260505041257 56 78 3.0 7.0 0.00 0.00 0.00 84 1009.2
20260505040916 56 69 2.0 4.0 0.00 0.00 0.00 84 1009.2
20260505040657 56 70 4.0 9.0 0.00 0.00 0.00 84 1009.2
20260505040316 56 65 3.0 6.0 0.00 0.00 0.00 84 1009.2
20260505040055 56 68 3.0 8.0 0.00 0.00 0.00 84 1009.2
20260505035759 56 67 3.0 8.0 0.00 0.00 0.00 84 1009.2
20260505035417 56 73 4.0 8.0 0.00 0.00 0.00 84 1009.2
20260505035117 56 71 4.0 6.0 0.00 0.00 0.00 84 1009.3
20260505034818 56 66 3.0 6.0 0.00 0.00 0.00 84 1009.4
20260505034516 56 75 2.0 4.0 0.00 0.00 0.00 84 1009.5
20260505034257 56 80 2.0 3.0 0.00 0.00 0.00 84 1009.6
20260505033915 56 85 2.0 4.0 0.00 0.00 0.00 84 1009.7
20260505033619 56 69 2.0 3.0 0.00 0.00 0.00 84 1009.6
20260505033316 56 49 1.0 4.0 0.00 0.00 0.00 84 1009.6
20260505033017 56 61 1.0 5.0 0.00 0.00 0.00 84 1009.7
20260505032757 56 44 2.0 3.0 0.00 0.00 0.00 84 1009.6
20260505032417 56 25 1.0 4.0 0.00 0.00 0.00 83 1009.7
20260505032115 56 25 0.0 2.0 0.00 0.00 0.00 83 1009.8
20260505031815 56 69 1.0 3.0 0.00 0.00 0.00 83 1009.8
20260505031516 56 81 1.0 3.0 0.00 0.00 0.00 83 1009.8
20260505031217 57 76 1.0 2.0 0.00 0.00 0.00 82 1009.8
20260505030955 57 73 1.0 3.0 0.00 0.00 0.00 82 1009.8
20260505030620 57 68 2.0 4.0 0.00 0.00 0.00 82 1009.9
20260505030317 57 65 3.0 6.0 0.00 0.00 0.00 82 1009.9
20260505030016 57 62 1.0 3.0 0.00 0.00 0.00 81 1009.9
20260505025715 57 63 1.0 3.0 0.00 0.00 0.00 81 1009.8
20260505025417 57 57 3.0 6.0 0.00 0.00 0.00 81 1009.9
20260505025117 57 81 3.0 6.0 0.00 0.00 0.00 81 1010.1
20260505024817 57 86 1.0 2.0 0.00 0.00 0.00 81 1010.2
20260505024517 57 86 1.0 2.0 0.00 0.00 0.00 81 1010.2
20260505024217 57 86 0.0 2.0 0.00 0.00 0.00 81 1010.2
20260505023916 57 74 2.0 4.0 0.00 0.00 0.00 81 1010.1
20260505023615 57 60 2.0 6.0 0.00 0.00 0.00 81 1010.0
20260505023357 57 57 2.0 6.0 0.00 0.00 0.00 81 1009.9
20260505023017 57 54 3.0 5.0 0.00 0.00 0.00 81 1009.8
20260505022717 57 47 2.0 6.0 0.00 0.00 0.00 81 1009.9
20260505022457 57 51 2.0 5.0 0.00 0.00 0.00 81 1009.8
20260505022117 57 51 2.0 5.0 0.00 0.00 0.00 81 1009.9
20260505021816 57 62 2.0 4.0 0.00 0.00 0.00 81 1010.0
20260505021555 57 65 2.0 6.0 0.00 0.00 0.00 81 1010.0
20260505021257 57 70 2.0 7.0 0.00 0.00 0.00 81 1010.0
20260505020957 57 72 1.0 3.0 0.00 0.00 0.00 81 1010.1
20260505020617 57 66 2.0 4.0 0.00 0.00 0.00 81 1010.1
20260505020317 57 57 1.0 3.0 0.00 0.00 0.00 81 1010.1
20260505020017 57 68 1.0 2.0 0.00 0.00 0.00 81 1010.1
20260505015719 57 63 1.0 3.0 0.00 0.00 0.00 81 1010.2
20260505015415 57 55 2.0 7.0 0.00 0.00 0.00 82 1010.2
20260505015116 57 45 1.0 3.0 0.00 0.00 0.00 82 1010.2
20260505014816 57 52 2.0 5.0 0.00 0.00 0.00 82 1010.3
20260505014517 56 52 2.0 4.0 0.00 0.00 0.00 83 1010.3
20260505014217 56 67 1.0 3.0 0.00 0.00 0.00 83 1010.3
20260505013917 56 42 1.0 4.0 0.00 0.00 0.00 83 1010.3
20260505013616 56 39 1.0 2.0 0.00 0.00 0.00 83 1010.3
20260505013315 56 39 1.0 2.0 0.00 0.00 0.00 83 1010.4
20260505013016 56 39 0.0 2.0 0.00 0.00 0.00 83 1010.4
20260505012717 56 39 1.0 3.0 0.00 0.00 0.00 82 1010.4
20260505012416 56 40 1.0 3.0 0.00 0.00 0.00 82 1010.4
20260505012117 56 40 1.0 3.0 0.00 0.00 0.00 82 1010.4
20260505011817 57 40 0.0 2.0 0.00 0.00 0.00 82 1010.4
20260505011516 57 40 1.0 2.0 0.00 0.00 0.00 82 1010.4
20260505011215 57 45 1.0 4.0 0.00 0.00 0.00 82 1010.4
20260505010916 57 43 1.0 5.0 0.00 0.00 0.00 82 1010.5
20260505010620 57 53 1.0 4.0 0.00 0.00 0.00 82 1010.5
20260505010317 57 44 2.0 4.0 0.00 0.00 0.00 82 1010.6
20260505010015 57 35 2.0 6.0 0.00 0.00 0.00 82 1010.6
20260505005757 57 33 2.0 4.0 0.00 0.00 0.00 82 1010.6
20260505005431 56 38 2.0 5.0 0.00 0.00 0.00 82 1010.6
20260505005115 56 40 2.0 5.0 0.00 0.00 0.00 82 1010.6
20260505004815 56 42 2.0 5.0 0.00 0.00 0.00 83 1010.7
20260505004517 56 38 2.0 4.0 0.00 0.00 0.00 83 1010.7
20260505004217 56 39 2.0 4.0 0.00 0.00 0.00 83 1010.7
20260505003917 56 43 1.0 2.0 0.00 0.00 0.00 83 1010.7
20260505003617 56 43 1.0 3.0 0.00 0.00 0.00 83 1010.7
20260505003320 56 43 1.0 3.0 0.00 0.00 0.00 83 1010.8
20260505003015 56 43 1.0 3.0 0.00 0.00 0.00 83 1010.9
20260505002756 56 43 2.0 3.0 0.00 0.00 0.00 83 1010.9
20260505002417 56 43 0.0 1.0 0.00 0.00 0.00 83 1011.0
20260505002117 56 43 0.0 1.0 0.00 0.00 0.00 83 1011.0
20260505001818 56 43 0.0 2.0 0.00 0.00 0.00 83 1011.0
20260505001517 57 43 0.0 1.0 0.00 0.00 0.00 83 1011.0
20260505001220 56 43 0.0 2.0 0.00 0.00 0.00 82 1011.1
20260505000915 57 43 0.0 2.0 0.00 0.00 0.00 82 1011.1
20260505000616 57 43 1.0 4.0 0.00 0.00 0.00 82 1011.1
20260505000317 57 43 2.0 3.0 0.00 0.00 0.00 82 1011.1
20260505000017 57 43 2.0 4.0 0.00 0.00 0.00 82 1011.1
20260504235720 57 31 1.0 4.0 0.00 0.00 0.00 83 1011.1
20260504235417 56 27 2.0 5.0 0.00 0.00 0.00 83 1011.2
20260504235116 56 36 2.0 3.0 0.00 0.00 0.00 83 1011.2
20260504234817 56 36 1.0 3.0 0.00 0.00 0.00 83 1011.1
20260504234516 56 35 1.0 3.0 0.00 0.00 0.00 83 1011.2
20260504234217 56 32 1.0 5.0 0.00 0.00 0.00 83 1011.1
20260504233916 56 29 0.0 2.0 0.00 0.00 0.00 83 1011.2
20260504233617 56 29 1.0 2.0 0.00 0.00 0.00 83 1011.2
20260504233320 56 29 1.0 3.0 0.00 0.00 0.00 82 1011.2
20260504233016 57 32 1.0 2.0 0.00 0.00 0.00 82 1011.2
20260504232716 57 32 1.0 3.0 0.00 0.00 0.00 82 1011.2
20260504232416 57 36 2.0 4.0 0.00 0.00 0.00 82 1011.3
20260504232117 57 26 2.0 5.0 0.00 0.00 0.00 81 1011.3
20260504231817 57 22 2.0 4.0 0.00 0.00 0.00 81 1011.3
20260504231516 57 19 1.0 4.0 0.00 0.00 0.00 81 1011.3
20260504231217 57 10 2.0 5.0 0.00 0.00 0.00 81 1011.3
20260504230916 57 9 2.0 5.0 0.00 0.00 0.00 81 1011.3
20260504230617 57 16 2.0 4.0 0.00 0.00 0.00 81 1011.4
20260504230316 57 26 4.0 6.0 0.00 0.00 0.00 81 1011.3
20260504230100 57 38 2.0 4.0 0.00 0.00 0.00 81 1011.4
20260504225717 57 39 1.0 3.0 0.00 0.00 0.00 81 1011.4
20260504225417 57 35 2.0 4.0 0.00 0.00 0.00 81 1011.4
20260504225115 57 26 0.0 1.0 0.00 0.00 0.00 81 1011.4
20260504224820 58 33 2.0 4.0 0.00 0.00 0.00 80 1011.4
20260504224517 58 28 1.0 4.0 0.00 0.00 0.00 80 1011.3
20260504224216 58 34 1.0 4.0 0.00 0.00 0.00 80 1011.3
20260504223915 58 34 2.0 5.0 0.00 0.00 0.00 80 1011.3
20260504223617 59 42 3.0 7.0 0.00 0.00 0.00 79 1011.2
20260504223357 59 23 3.0 8.0 0.00 0.00 0.00 79 1011.2
20260504223017 59 35 4.0 10.0 0.00 0.00 0.00 79 1011.2
20260504222719 59 20 3.0 7.0 0.00 0.00 0.00 79 1011.2
20260504222417 59 9 3.0 8.0 0.00 0.00 0.00 79 1011.1
20260504222116 59 6 4.0 7.0 0.00 0.00 0.00 79 1011.2
20260504221817 59 10 5.0 9.0 0.00 0.00 0.00 79 1011.2
20260504221517 59 18 4.0 8.0 0.00 0.00 0.00 79 1011.3
20260504221218 59 18 5.0 13.0 0.00 0.00 0.00 79 1011.3
20260504220957 59 22 4.0 10.0 0.00 0.00 0.00 79 1011.3
20260504220619 58 16 4.0 8.0 0.00 0.00 0.00 79 1011.3
20260504220357 58 20 3.0 9.0 0.00 0.00 0.00 79 1011.4
20260504220016 58 35 1.0 4.0 0.00 0.00 0.00 79 1011.4
20260504215717 58 15 3.0 6.0 0.00 0.00 0.00 79 1011.4
20260504215417 58 10 4.0 7.0 0.00 0.00 0.00 80 1011.4
20260504215117 58 6 4.0 7.0 0.00 0.00 0.00 80 1011.4
20260504214817 57 13 4.0 9.0 0.00 0.00 0.00 80 1011.4
20260504214516 57 10 3.0 7.0 0.00 0.00 0.00 80 1011.4
20260504214216 57 352 1.0 4.0 0.00 0.00 0.00 80 1011.5
20260504213916 57 4 2.0 4.0 0.00 0.00 0.00 80 1011.5
20260504213617 58 13 2.0 4.0 0.00 0.00 0.00 80 1011.5
20260504213317 57 359 2.0 4.0 0.00 0.00 0.00 80 1011.5
20260504213016 57 1 2.0 4.0 0.00 0.00 0.00 80 1011.5
20260504212717 57 352 1.0 2.0 0.00 0.00 0.00 80 1011.5
20260504212459 57 355 2.0 4.0 0.00 0.00 0.00 80 1011.5
20260504212117 57 346 1.0 2.0 0.00 0.00 0.00 80 1011.5
20260504211816 57 338 1.0 4.0 0.00 0.00 0.00 80 1011.5
20260504211520 57 336 2.0 4.0 0.00 0.00 0.00 80 1011.5
20260504211217 57 340 2.0 4.0 0.00 0.00 0.00 80 1011.5
20260504210917 57 9 1.0 3.0 0.00 0.00 0.00 80 1011.5
20260504210619 57 13 1.0 4.0 0.00 0.00 0.00 80 1011.5
20260504210316 57 13 1.0 2.0 0.00 0.00 0.00 80 1011.5
20260504210017 57 13 1.0 2.0 0.00 0.00 0.00 80 1011.5
20260504205716 57 13 1.0 4.0 0.00 0.00 0.00 80 1011.5
20260504205415 57 13 0.0 2.0 0.00 0.00 0.00 79 1011.5
20260504205117 57 13 0.0 1.0 0.00 0.00 0.00 79 1011.5
20260504204817 57 13 1.0 2.0 0.00 0.00 0.00 79 1011.5
20260504204517 57 13 1.0 2.0 0.00 0.00 0.00 79 1011.5
20260504204255 57 13 0.0 2.0 0.00 0.00 0.00 79 1011.5
20260504203957 57 13 2.0 4.0 0.00 0.00 0.00 80 1011.5
20260504203619 57 10 2.0 5.0 0.00 0.00 0.00 80 1011.5
20260504203317 57 4 2.0 4.0 0.00 0.00 0.00 79 1011.5
20260504203015 57 8 2.0 5.0 0.00 0.00 0.00 79 1011.5
20260504202717 57 2 2.0 3.0 0.00 0.00 0.00 79 1011.5
20260504202417 58 357 1.0 3.0 0.00 0.00 0.00 78 1011.4
20260504202116 58 357 1.0 2.0 0.00 0.00 0.00 78 1011.4
20260504201817 58 3 2.0 5.0 0.00 0.00 0.00 78 1011.5
20260504201516 59 16 2.0 6.0 0.00 0.00 0.00 77 1011.4
20260504201217 59 11 2.0 4.0 0.00 0.00 0.00 77 1011.5
20260504200917 59 359 3.0 4.0 0.00 0.00 0.00 78 1011.5
20260504200703 58 340 3.0 5.0 0.00 0.00 0.00 78 1011.5
20260504200317 58 336 2.0 4.0 0.00 0.00 0.00 79 1011.4
20260504200016 57 336 3.0 6.0 0.00 0.00 0.00 79 1011.5
20260504195757 57 338 2.0 4.0 0.00 0.00 0.00 80 1011.4
20260504195416 57 338 1.0 2.0 0.00 0.00 0.00 80 1011.4
20260504195117 57 338 1.0 2.0 0.00 0.00 0.00 80 1011.4
20260504194817 57 338 1.0 2.0 0.00 0.00 0.00 80 1011.5
20260504194517 57 338 1.0 2.0 0.00 0.00 0.00 80 1011.4
20260504194217 57 0.0 0.0 0.00 0.00 0.00 79 1011.5
20260504193916 58 0.0 0.0 0.00 0.00 0.00 79 1011.5
20260504193617 58 0.0 0.0 0.00 0.00 0.00 79 1011.4
20260504193356 58 0.0 0.0 0.00 0.00 0.00 79 1011.4
20260504193017 58 0.0 0.0 0.00 0.00 0.00 78 1011.4
20260504192717 58 338 0.0 1.0 0.00 0.00 0.00 78 1011.4
20260504192417 59 0.0 0.0 0.00 0.00 0.00 77 1011.4
20260504192119 59 0.0 0.0 0.00 0.00 0.00 76 1011.4
20260504191815 60 0.0 0.0 0.00 0.00 0.00 76 1011.4
20260504191517 60 338 0.0 1.0 0.00 0.00 0.00 76 1011.4
20260504191216 60 338 1.0 2.0 0.00 0.00 0.00 76 1011.3
20260504190916 61 333 2.0 4.0 0.00 0.00 0.00 76 1011.4
20260504190617 61 328 1.0 2.0 0.00 0.00 0.00 76 1011.4
20260504190317 61 328 1.0 2.0 0.00 0.00 0.00 75 1011.4
20260504190017 61 328 2.0 3.0 0.00 0.00 0.00 75 1011.4
20260504185716 62 328 1.0 2.0 0.00 0.00 0.00 74 1011.3
20260504185417 62 328 2.0 3.0 0.00 0.00 0.00 74 1011.3
20260504185116 62 326 2.0 3.0 0.00 0.00 0.00 74 1011.3
20260504184916 62 326 2.0 3.0 0.00 0.00 0.00 73 1011.2
20260504184515 63 329 2.0 3.0 0.00 0.00 0.00 73 1011.2
20260504184217 63 333 2.0 4.0 0.00 0.00 0.00 72 1011.2
20260504183917 63 332 2.0 3.0 0.00 0.00 0.00 72 1011.2
20260504183616 63 333 2.0 3.0 0.00 0.00 0.00 71 1011.2
20260504183315 64 329 2.0 3.0 0.00 0.00 0.00 71 1011.2
20260504183016 64 327 2.0 4.0 0.00 0.00 0.00 70 1011.1
20260504182717 64 335 2.0 4.0 0.00 0.00 0.00 70 1011.1
20260504182417 64 329 2.0 4.0 0.00 0.00 0.00 70 1011.1
20260504182115 65 329 2.0 4.0 0.00 0.00 0.00 70 1011.1
20260504181817 65 331 2.0 4.0 0.00 0.00 0.00 70 1011.1
20260504181516 65 357 2.0 4.0 0.00 0.00 0.00 70 1011.1
20260504181217 65 4 2.0 4.0 0.00 0.00 0.00 70 1011.1
20260504180956 65 351 1.0 3.0 0.00 0.00 0.00 69 1011.1
20260504180657 65 344 1.0 4.0 0.00 0.00 0.00 69 1011.0
20260504180357 65 330 2.0 4.0 0.00 0.00 0.00 69 1011.0
20260504180058 66 334 2.0 4.0 0.00 0.00 0.00 68 1011.0
20260504175717 66 326 2.0 5.0 0.00 0.00 0.00 66 1011.0
20260504175418 67 327 4.0 5.0 0.00 0.00 0.00 66 1011.0
20260504175157 67 323 2.0 4.0 0.00 0.00 0.00 66 1011.0
20260504174816 67 324 3.0 5.0 0.00 0.00 0.00 66 1011.0
20260504174520 67 324 3.0 4.0 0.00 0.00 0.00 66 1011.0
20260504174217 67 329 3.0 4.0 0.00 0.00 0.00 65 1011.0
20260504173917 67 326 3.0 5.0 0.00 0.00 0.00 65 1010.9
20260504173620 68 324 3.0 5.0 0.00 0.00 0.00 64 1011.0
20260504173315 68 325 4.0 5.0 0.00 0.00 0.00 64 1010.9
20260504173017 68 323 3.0 5.0 0.00 0.00 0.00 64 1011.0
20260504172716 68 327 2.0 4.0 0.00 0.00 0.00 63 1010.9
20260504172419 69 326 3.0 5.0 0.00 0.00 0.00 62 1010.9
20260504172157 69 330 3.0 6.0 0.00 0.00 0.00 61 1010.9
20260504171817 69 325 3.0 5.0 0.00 0.00 0.00 61 1010.9
20260504171520 69 338 2.0 4.0 0.00 0.00 0.00 61 1010.9
20260504171216 69 329 2.0 4.0 0.00 0.00 0.00 62 1010.9
20260504170917 70 324 2.0 3.0 0.00 0.00 0.00 61 1010.9
20260504170616 70 328 3.0 5.0 0.00 0.00 0.00 62 1011.0
20260504170317 70 328 3.0 6.0 0.00 0.00 0.00 61 1010.9
20260504160316 71 328 4.0 8.0 0.00 0.00 0.00 60 1011.0
20260504150917 72 324 5.0 9.0 0.00 0.00 0.00 54 1011.1
20260504150655 72 285 5.0 9.0 0.00 0.00 0.00 51 1011.1
20260504150316 72 270 5.0 9.0 0.00 0.00 0.00 52 1011.1
20260504141257 72 270 7.0 11.0 0.00 0.00 0.00 51 1011.4
20260504140918 73 274 6.0 11.0 0.00 0.00 0.00 51 1011.3
20260504140618 73 279 5.0 10.0 0.00 0.00 0.00 50 1011.3
20260504140315 73 271 6.0 10.0 0.00 0.00 0.00 50 1011.3
20260504130617 72 292 6.0 9.0 0.00 0.00 0.00 52 1011.6
20260504130318 72 280 5.0 10.0 0.00 0.00 0.00 52 1011.7
20260504120317 74 228 3.0 6.0 0.00 0.00 0.00 48 1011.9
20260504110616 72 257 4.0 8.0 0.00 0.00 0.00 52 1012.3
20260504110316 72 194 4.0 7.0 0.00 0.00 0.00 51 1012.4
20260504100317 69 227 6.0 12.0 0.00 0.00 0.00 59 1012.8